Regional Weather Roundup
Issued by NWS

Home | Current Version | Previous Version | Text Only | Print | Product List | Glossary On
Versions: 1 2 3 4 5 6 7 8 9 10 11 12 13 14 15 16 17 18 19 20 21 22 23 24 25 26 27 28 29 30 31 32 33 34 35 36 37 38 39 40 41 42 43 44 45 46 47 48 49 50
000
ASUS43 KTOP 300508
RWRKS

WEATHER ROUNDUP FOR KANSAS
NATIONAL WEATHER SERVICE GOODLAND KS
1200 AM CDT SAT APR 30 2016

NOTE:  "FAIR" INDICATES FEW OR NO CLOUDS BELOW 12,000 FEET WITH NO
SIGNIFICANT WEATHER AND/OR OBSTRUCTIONS TO VISIBILITY.

KSZ001>006-013>018-027>032-041>047-300600-
NORTHWEST KANSAS

CITY           SKY/WX    TMP DP  RH WIND       PRES   REMARKS
GOODLAND       CLOUDY    32  31  96 NW10      29.84S FOG     WCI  24
HAYS           CLOUDY    45  36  70 N17       29.77F
HILL CITY      LGT RAIN  42  40  92 N16       29.82F
RUSSELL        LGT RAIN  46  45  96 N13       29.76F
$$

KSZ061>065-074>080-084>089-300600-
SOUTHWEST KANSAS

CITY           SKY/WX    TMP DP  RH WIND       PRES   REMARKS
DODGE CITY     CLOUDY    40  39  97 NW9       29.80S
ELKHART          N/A     38  33  82 NW9         N/A
GARDEN CITY    CLOUDY    38  36  92 NW13      29.81F WCI  30
GREAT BEND     CLOUDY    46  41  81 N12       29.76F
LIBERAL        CLOUDY    41  37  87 NW13      29.83F
PRATT          DRIZZLE   44  43  97 NW13      29.75S
$$

KSZ066>073-081>083-090>101-300600-
SOUTHEAST KANSAS

CITY           SKY/WX    TMP DP  RH WIND       PRES   REMARKS
CHANUTE        LGT RAIN  61  57  87 SE10      29.67F
COFFEYVILLE    MOCLDY    62  60  93 E7        29.67F
HUTCHINSON     LGT RAIN  52  51  97 NW8       29.71F FOG
MEDICINE LODGE   N/A     48  47  96 NW12      29.73F
NEWTON         CLOUDY    52  46  82 E5        29.69F
PARSONS        CLOUDY    62  60  93 E5        29.68F
WICHITA INTL   CLOUDY    56  53  90 NE7       29.66F
WICHITA JABRA  CLOUDY    54  54 100 N6        29.66F
WICHITA MCCONL CLOUDY    55  54  94 N6        29.66F
WINFIELD       LGT RAIN  58  56  93 NE3       29.66F
$$

KSZ007>012-019>026-033>040-048>060-102>105-300600-
NORTHEAST KANSAS

CITY           SKY/WX    TMP DP  RH WIND       PRES   REMARKS
CONCORDIA      LGT RAIN  48  46  93 NE8       29.76S FOG
EMPORIA        LGT RAIN  54  53  97 E12       29.67F
LAWRENCE       LGT RAIN  53  51  93 NE10      29.75S FOG
MANHATTAN      LGT RAIN  52  48  86 E16G23    29.71F
MARYSVILLE     CLOUDY    48  46  93 E17G26    29.76F
OLATHE IND     LGT RAIN  56  54  93 NE12G17   29.73F
OLATHE EXE     LGT RAIN  55  53  93 E8G29     29.74F
SALINA         CLOUDY    53  51  93 W13       29.74S
TOPEKA BILLARD LGT RAIN  53  50  89 E18G26    29.72F
TOPEKA FORBES  LGT RAIN  53  51  93 NE13G24   29.71F
$$



USA.gov is the U.S. government's official web portal to all federal, state and local government web resources and services.